[Iaude] MPEC B58: 2024 BJ1 [a=1.22,e=0.21,i=38.0,H=23.7]

mpec at marsden.cfa.harvard.edu mpec at marsden.cfa.harvard.edu
Sat Jan 20 04:18:17 EST 2024


M.P.E.C. 2024-B58                              Issued 2024 January 20, 09:16 UT

     The Minor Planet Electronic Circulars contain information on unusual
         minor planets, routine data on comets and natural satellites,
         and occasional editorial announcements.  They are published
    on behalf of Division F of the International Astronomical Union by the
          Minor Planet Center, Smithsonian Astrophysical Observatory,
                          Cambridge, MA 02138, U.S.A.
			  
             Prepared using the Tamkin Foundation Computer Network

                              MPC at CFA.HARVARD.EDU
            URL https://www.minorplanetcenter.net/    ISSN 1523-6714

                                    2024 BJ1                                    


Observations:
     K24B01J* C2024 01 16.38195809 08 43.782+32 16 17.33         21.76GVEB058V00
     K24B01J  C2024 01 16.38746209 08 42.749+32 17 02.29               VEB058V00
     K24B01J  C2024 01 16.39296109 08 41.726+32 17 47.94         21.91GVEB058V00
     K24B01J  C2024 01 16.39847809 08 40.711+32 18 33.19         21.20GVEB058V00
     K24B01J KC2024 01 16.45616 09 08 29.80 +32 26 27.7          22.1 RVEB058291
     K24B01J KC2024 01 16.46006 09 08 29.01 +32 27 00.0          21.7 RVEB058291
     K24B01J KC2024 01 16.46393 09 08 28.34 +32 27 31.5          22.5 RVEB058291
     K24B01J KC2024 01 16.53088109 08 15.930+32 36 38.10               VEB058V06
     K24B01J KC2024 01 16.53342809 08 15.460+32 36 58.90         21.29GVEB058V06
     K24B01J KC2024 01 16.53597509 08 15.110+32 37 18.60         21.65GVEB058V06
     K24B01J KC2024 01 17.31886 09 05 58.01 +34 23 32.0          22.2 RVEB058291
     K24B01J KC2024 01 17.32852 09 05 56.09 +34 24 50.3          22.3 RVEB058291
     K24B01J  C2024 01 17.33780409 05 54.086+34 26 04.59         22.1 GVEB058H01
     K24B01J KC2024 01 17.33828 09 05 54.22 +34 26 08.5          22.0 RVEB058291
     K24B01J  C2024 01 17.34279809 05 53.101+34 26 44.55         22.2 GVEB058H01
     K24B01J  C2024 01 17.35505109 05 50.705+34 28 22.94         21.4 GVEB058H01
     K24B01J  C2024 01 17.36085709 05 49.570+34 29 09.42         21.4 GVEB058H01
     K24B01J mC2024 01 20.37379108 56 09.400+40 50 14.60         22.80GVEB058V00
     K24B01J mC2024 01 20.37475008 56 09.220+40 50 21.40         22.52GVEB058V00
     K24B01J mC2024 01 20.37570808 56 09.030+40 50 28.20               VEB058V00
     K24B01J mC2024 01 20.37666408 56 08.790+40 50 35.20         21.68GVEB058V00

Observer details:
291 LPL/Spacewatch II.  Observers T. H. Bressi, C. Lejoly.  1.8-m f/2.7
    reflector + CCD.
H01 Magdalena Ridge Observatory, Socorro.  Observers W. H. Ryan, E. V. Ryan.
    Measurer W. H. Ryan.  2.4-m f/8.9 Ritchey-Chretien + CCD.
V00 Kitt Peak-Bok.  Observers R. A. Mastaler, H. Groeller.  Measurers M. J.
    Brucker, C. E. Woodward, D. Fay, J. B. Fazekas, D. C. Fuls, A. R. Gibbs,
    H. Groeller, J. K. Hogan, R. A. Kowalski, S. M. Larson, C. Lejoly, G. J.
    Leonard, R. A. Mastaler, R. S. McMillan, D. Rankin, R. L. Seaman, A.
    Serrano, F. C. Shelly, K. W. Wierzchos.  2.25-m reflector + 4x4K mosaic
    CCD.
V06 Catalina Sky Survey-Kuiper.  Observer G. J. Leonard.  Measurers T. Beuden,
    V. F. Carvajal, D. Fay, J. B. Fazekas, D. C. Fuls, A. R. Gibbs, A. D.
    Grauer, H. Groeller, J. K. Hogan, R. A. Kowalski, S. M. Larson, G. J.
    Leonard, D. Rankin, R. L. Seaman, F. C. Shelly, K. W. Wierzchos.  1.55-m
    reflector + 1K CCD.

Orbital elements:
2024 BJ1                                                 Earth MOID = 0.1141 AU
Epoch 2023 Sept. 13.0 TT = JDT 2460200.5                MPC                     
M 347.84249              (2000.0)            P               Q                  
n   0.72934061     Peri.  261.99176     +0.76833984     -0.30742992             
a   1.2223131      Node   114.29744     +0.42062631     +0.90362496             
e   0.2073304      Incl.   38.01969     -0.48241828     +0.29824280             
P   1.35           H   23.78          G   0.15           U   9                  
Residuals in seconds of arc
240116 V00  0.0   0.1-    240116 V06  0.1-  0.3+    240117 H01  0.1-  0.0
240116 V00  0.0   0.6-    240116 V06  0.2-  0.3+    240117 H01  0.0   0.0
240116 V00  0.2+  0.3-    240116 V06 (1.3+  0.7-)   240117 H01  0.0   0.1-
240116 V00  0.6+  0.5-    240117 291  0.5+  0.9-    240120 V00  0.3-  0.0
240116 291  0.1-  0.1-    240117 291  0.1+  0.4-    240120 V00  0.1+  0.0
240116 291  0.9-  0.2+    240117 H01  0.0   0.2+    240120 V00  0.3+  0.1-
240116 291  0.2-  0.0     240117 291  0.6+  0.8-    240120 V00  0.1-  0.2+

Ephemeris:
2024 BJ1                 a,e,i = 1.22, 0.21, 38                  q = 0.9689
Date    TT    R. A. (2000) Decl.     Delta      r    Elong.  Phase     V
2023 12 21    09 44 35.3 -20 27 56   0.3437  1.1410   108.6    54.8    23.7
...
2024 01 05    09 33 29.0 +04 53 15   0.2587  1.1904   138.9    32.9    22.6
...
2024 01 13    09 17 49.7 +24 12 31   0.2501  1.2165   156.2    19.1    22.2
...
2024 01 19    09 00 42.2 +38 01 57   0.2671  1.2358   158.2    17.2    22.3
2024 01 20    08 57 25.3 +40 05 19   0.2717  1.2390   157.3    17.9    22.3
2024 01 21    08 54 01.6 +42 03 21   0.2768  1.2422   156.1    18.7    22.4
...
2024 01 27    08 31 43.9 +51 53 46   0.3159  1.2609   146.8    25.3    22.9
...
2024 02 04    07 59 53.9 +60 13 33   0.3843  1.2852   134.6    33.1    23.6
...
2024 02 19    07 15 04.8 +66 38 50   0.5364  1.3278   118.0    41.1    24.7

A. U. Tomatic                (C) Copyright 2024 MPC           M.P.E.C. 2024-B58





More information about the Iaude mailing list